Overview Statistics Trail Chart Weather Telemetry Raw packets
 

This is the latest recevied weather packets stored in our database for station/object KB4MOX. If no packets are shown the sender has not sent any weather packets the latest 10 day(s).

<< 78 79 80 81 82 83 84 >>
Time Temp. Humidity Pressure Rain* Wind** Luminosity Snow
1788052827 25° C 85% 1020.6 hPa 0 mm - 0 W/m² -
1788052526 25° C 85% 1020.4 hPa 0 mm - 0 W/m² -
1788052221 25° C 85% 1020.5 hPa 0 mm - 0 W/m² -
1788051916 25.56° C 84% 1020.3 hPa 0 mm - 0 W/m² -
1788051612 25.56° C 84% 1020 hPa 0 mm - 0 W/m² -
1788051310 25.56° C 83% 1019.9 hPa 0 mm - 0 W/m² -
1788051009 25.56° C 83% 1020 hPa 0 mm - 0 W/m² -
1788050704 25.56° C 82% 1019.9 hPa 0 mm - 0 W/m² -
1788050403 26.11° C 82% 1019.7 hPa 0 mm - 0 W/m² -
1788050098 26.11° C 81% 1019.8 hPa 0 mm - 0 W/m² -
1788049796 26.11° C 81% 1019.5 hPa 0 mm - 0 W/m² -
1788049491 26.67° C 80% 1019.5 hPa 0 mm - 0 W/m² -
1788049187 26.67° C 79% 1019.5 hPa 0 mm - 0 W/m² -
1788048882 26.67° C 78% 1019.5 hPa 0 mm - 0 W/m² -
1788048577 26.67° C 78% 1019.2 hPa 0 mm - 1 W/m² -
1788048274 27.22° C 77% 1019.3 hPa 0 mm - 2 W/m² -
1788047972 27.22° C 76% 1019 hPa 0 mm - 5 W/m² -
1788047661 27.78° C 75% 1019 hPa 0 mm - 6 W/m² -
1788047360 27.78° C 74% 1019.1 hPa 0 mm - 9 W/m² -
1788047056 27.78° C 73% 1019.1 hPa 0 mm - 13 W/m² -
1788046755 28.33° C 72% 1019.4 hPa 0 mm - 17 W/m² -
1788046449 28.33° C 72% 1019.4 hPa 0 mm - 20 W/m² -
1788046148 28.89° C 71% 1019.3 hPa 0 mm - 24 W/m² -
1788045843 28.89° C 71% 1019.2 hPa 0 mm - 30 W/m² -
1788045538 28.89° C 71% 1019.2 hPa 0 mm - 39 W/m² -

* Rain latest hour (hover to see other rain measurements)
** Current wind speed in m/s (hover to see current wind gust speed)